Time,TemperatureF,DewpointF,PressureIn,WindDirection,WindDirectionDegrees,WindSpeedMPH,WindSpeedGustMPH,Humidity,HourlyPrecipIn,Conditions,Clouds,dailyrainin,SoftwareType,DateUTC
2013-05-09 00:06:00,58.6,58.0,30.01,East,87,0.0,-999.0,97,-99.99,,,0.08,weatherlink.com 1.10,2013-05-09 04:06:00,
2013-05-09 00:21:00,58.5,58.0,30.00,East,88,0.0,-999.0,97,-99.99,,,0.08,weatherlink.com 1.10,2013-05-09 04:21:00,
2013-05-09 00:36:00,58.3,58.0,30.00,East,88,0.0,-999.0,97,-99.99,,,0.08,weatherlink.com 1.10,2013-05-09 04:36:00,
2013-05-09 00:51:00,58.2,57.0,30.00,East,88,0.0,-999.0,97,-99.99,,,0.08,weatherlink.com 1.10,2013-05-09 04:51:00,
2013-05-09 01:06:00,58.0,57.0,30.00,East,87,0.0,-999.0,97,-99.99,,,0.08,weatherlink.com 1.10,2013-05-09 05:06:00,
2013-05-09 01:21:00,57.9,57.0,29.98,East,87,0.0,-999.0,98,-99.99,,,0.08,weatherlink.com 1.10,2013-05-09 05:21:00,
2013-05-09 01:36:00,57.7,57.0,29.98,East,87,0.0,-999.0,98,-99.99,,,0.08,weatherlink.com 1.10,2013-05-09 05:36:00,
2013-05-09 01:51:00,57.7,57.0,29.98,East,87,0.0,-999.0,98,-99.99,,,0.08,weatherlink.com 1.10,2013-05-09 05:51:00,
2013-05-09 02:06:00,57.5,57.0,29.97,East,88,0.0,-999.0,98,-99.99,,,0.08,weatherlink.com 1.10,2013-05-09 06:06:00,
2013-05-09 02:21:00,57.4,57.0,29.97,East,82,0.0,-999.0,98,-99.99,,,0.08,weatherlink.com 1.10,2013-05-09 06:21:00,
2013-05-09 02:36:00,57.3,57.0,29.97,East,82,0.0,-999.0,98,-99.99,,,0.08,weatherlink.com 1.10,2013-05-09 06:36:00,
2013-05-09 02:51:00,57.2,57.0,29.96,East,82,0.0,-999.0,98,-99.99,,,0.08,weatherlink.com 1.10,2013-05-09 06:51:00,
2013-05-09 03:06:00,57.2,57.0,29.96,East,82,0.0,-999.0,98,-99.99,,,0.08,weatherlink.com 1.10,2013-05-09 07:06:00,
2013-05-09 03:21:00,57.2,57.0,29.96,East,82,0.0,-999.0,98,-99.99,,,0.08,weatherlink.com 1.10,2013-05-09 07:21:00,
2013-05-09 03:36:00,57.0,57.0,29.96,East,82,0.0,-999.0,98,-99.99,,,0.08,weatherlink.com 1.10,2013-05-09 07:36:00,
2013-05-09 03:51:00,57.1,57.0,29.96,East,82,0.0,-999.0,98,-99.99,,,0.08,weatherlink.com 1.10,2013-05-09 07:51:00,
2013-05-09 04:06:00,57.2,57.0,29.95,East,82,0.0,-999.0,98,-99.99,,,0.08,weatherlink.com 1.10,2013-05-09 08:06:00,
2013-05-09 04:21:00,57.2,57.0,29.95,East,82,0.0,-999.0,98,-99.99,,,0.08,weatherlink.com 1.10,2013-05-09 08:21:00,
2013-05-09 04:36:00,57.2,57.0,29.95,East,79,0.0,-999.0,98,-99.99,,,0.08,weatherlink.com 1.10,2013-05-09 08:36:00,
2013-05-09 04:51:00,57.1,57.0,29.94,East,79,0.0,-999.0,98,-99.99,,,0.08,weatherlink.com 1.10,2013-05-09 08:51:00,
2013-05-09 05:06:00,57.2,57.0,29.95,East,79,0.0,-999.0,98,-99.99,,,0.08,weatherlink.com 1.10,2013-05-09 09:06:00,
2013-05-09 05:21:00,57.2,57.0,29.94,East,79,0.0,-999.0,98,-99.99,,,0.08,weatherlink.com 1.10,2013-05-09 09:21:00,
2013-05-09 05:36:00,57.3,57.0,29.94,NNE,26,0.0,-999.0,98,-99.99,,,0.08,weatherlink.com 1.10,2013-05-09 09:36:00,
2013-05-09 05:51:00,57.1,57.0,29.94,NNE,19,0.0,-999.0,98,-99.99,,,0.08,weatherlink.com 1.10,2013-05-09 09:51:00,
2013-05-09 06:06:00,57.0,57.0,29.95,NNE,13,0.0,-999.0,98,-99.99,,,0.08,weatherlink.com 1.10,2013-05-09 10:06:00,
2013-05-09 06:21:00,57.1,57.0,29.95,NNE,13,0.0,-999.0,98,-99.99,,,0.08,weatherlink.com 1.10,2013-05-09 10:21:00,
2013-05-09 06:36:00,57.2,57.0,29.94,NNE,13,0.0,-999.0,98,-99.99,,,0.08,weatherlink.com 1.10,2013-05-09 10:36:00,
2013-05-09 06:51:00,57.3,57.0,29.95,NNE,13,0.0,-999.0,99,-99.99,,,0.08,weatherlink.com 1.10,2013-05-09 10:51:00,
2013-05-09 07:06:00,57.1,57.0,29.95,NNE,13,0.0,-999.0,99,-99.99,,,0.08,weatherlink.com 1.10,2013-05-09 11:06:00,
2013-05-09 07:21:00,57.3,57.0,29.95,NE,40,0.0,-999.0,99,-99.99,,,0.08,weatherlink.com 1.10,2013-05-09 11:21:00,
2013-05-09 07:36:00,57.5,57.0,29.96,NE,45,0.0,-999.0,99,-99.99,,,0.08,weatherlink.com 1.10,2013-05-09 11:36:00,
2013-05-09 07:51:00,57.7,58.0,29.96,NNE,26,0.0,-999.0,99,-99.99,,,0.08,weatherlink.com 1.10,2013-05-09 11:51:00,
2013-05-09 08:06:00,57.7,58.0,29.95,NNE,26,0.0,-999.0,99,-99.99,,,0.08,weatherlink.com 1.10,2013-05-09 12:06:00,
2013-05-09 08:21:00,58.0,58.0,29.95,NNE,26,0.0,-999.0,99,-99.99,,,0.08,weatherlink.com 1.10,2013-05-09 12:21:00,
2013-05-09 08:36:00,58.0,58.0,29.95,NNE,26,0.0,-999.0,99,-99.99,,,0.08,weatherlink.com 1.10,2013-05-09 12:36:00,
2013-05-09 08:51:00,58.3,58.0,29.95,NNE,26,0.0,-999.0,99,-99.99,,,0.08,weatherlink.com 1.10,2013-05-09 12:51:00,
2013-05-09 09:06:00,58.1,58.0,29.95,NNE,26,0.0,-999.0,99,-99.99,,,0.08,weatherlink.com 1.10,2013-05-09 13:06:00,
2013-05-09 09:21:00,58.5,58.0,29.96,NNE,26,0.0,-999.0,99,-99.99,,,0.08,weatherlink.com 1.10,2013-05-09 13:21:00,
2013-05-09 09:36:00,58.7,59.0,29.95,NNE,26,0.0,-999.0,99,-99.99,,,0.08,weatherlink.com 1.10,2013-05-09 13:36:00,
2013-05-09 09:51:00,59.1,59.0,29.95,NNE,26,0.0,-999.0,99,-99.99,,,0.08,weatherlink.com 1.10,2013-05-09 13:51:00,
2013-05-09 10:06:00,59.4,59.0,29.94,NNE,26,0.0,-999.0,99,-99.99,,,0.08,weatherlink.com 1.10,2013-05-09 14:06:00,
2013-05-09 10:21:00,60.6,60.0,29.94,NNE,26,0.0,-999.0,99,-99.99,,,0.08,weatherlink.com 1.10,2013-05-09 14:21:00,
2013-05-09 10:36:00,61.6,61.0,29.94,North,355,0.0,-999.0,97,-99.99,,,0.08,weatherlink.com 1.10,2013-05-09 14:36:00,
2013-05-09 10:51:00,62.9,61.0,29.94,NNE,14,0.0,-999.0,93,-99.99,,,0.08,weatherlink.com 1.10,2013-05-09 14:51:00,
2013-05-09 11:06:00,63.8,60.0,29.94,NNE,14,0.0,-999.0,87,-99.99,,,0.08,weatherlink.com 1.10,2013-05-09 15:06:00,
2013-05-09 11:21:00,63.4,60.0,29.94,NNE,30,0.0,-999.0,88,-99.99,,,0.09,weatherlink.com 1.10,2013-05-09 15:21:00,
2013-05-09 11:36:00,62.4,59.0,29.93,NNE,30,0.0,-999.0,89,-99.99,,,0.09,weatherlink.com 1.10,2013-05-09 15:36:00,
2013-05-09 11:51:00,62.5,60.0,29.93,NNE,30,0.0,-999.0,92,-99.99,,,0.09,weatherlink.com 1.10,2013-05-09 15:51:00,
2013-05-09 12:06:00,62.0,60.0,29.94,NNE,30,0.0,-999.0,93,-99.99,,,0.09,weatherlink.com 1.10,2013-05-09 16:06:00,
2013-05-09 12:21:00,61.8,60.0,29.93,NNE,30,0.0,-999.0,94,-99.99,,,0.12,weatherlink.com 1.10,2013-05-09 16:21:00,
2013-05-09 12:36:00,61.4,60.0,29.93,NNE,30,0.0,-999.0,96,-99.99,,,0.18,weatherlink.com 1.10,2013-05-09 16:36:00,
2013-05-09 12:51:00,61.1,60.0,29.92,NNE,30,0.0,-999.0,96,-99.99,,,0.22,weatherlink.com 1.10,2013-05-09 16:51:00,
2013-05-09 13:06:00,61.3,60.0,29.93,NNE,30,0.0,-999.0,96,-99.99,,,0.24,weatherlink.com 1.10,2013-05-09 17:06:00,
2013-05-09 13:21:00,60.9,60.0,29.92,ENE,61,0.0,-999.0,97,-99.99,,,0.27,weatherlink.com 1.10,2013-05-09 17:21:00,
2013-05-09 13:36:00,60.9,60.0,29.89,NNE,33,0.0,-999.0,97,-99.99,,,0.28,weatherlink.com 1.10,2013-05-09 17:36:00,
2013-05-09 13:51:00,60.9,60.0,29.90,NE,34,0.0,-999.0,97,-99.99,,,0.29,weatherlink.com 1.10,2013-05-09 17:51:00,
2013-05-09 14:06:00,61.6,61.0,29.90,NE,34,0.0,-999.0,97,-99.99,,,0.29,weatherlink.com 1.10,2013-05-09 18:06:00,
2013-05-09 14:21:00,63.0,62.0,29.90,ESE,113,0.0,-999.0,97,-99.99,,,0.29,weatherlink.com 1.10,2013-05-09 18:21:00,
2013-05-09 14:36:00,65.4,64.0,29.89,East,80,0.0,-999.0,96,-99.99,,,0.29,weatherlink.com 1.10,2013-05-09 18:36:00,
2013-05-09 14:51:00,64.4,62.0,29.89,SSE,150,0.0,-999.0,90,-99.99,,,0.30,weatherlink.com 1.10,2013-05-09 18:51:00,
2013-05-09 15:06:00,65.4,62.0,29.88,ESE,118,0.0,-999.0,89,-99.99,,,0.30,weatherlink.com 1.10,2013-05-09 19:06:00,
2013-05-09 15:21:00,65.6,60.0,29.88,South,184,0.0,-999.0,83,-99.99,,,0.30,weatherlink.com 1.10,2013-05-09 19:21:00,
2013-05-09 15:36:00,67.0,62.0,29.86,South,178,0.0,-999.0,83,-99.99,,,0.30,weatherlink.com 1.10,2013-05-09 19:36:00,
2013-05-09 15:51:00,68.4,62.0,29.86,SSE,147,0.0,-999.0,81,-99.99,,,0.30,weatherlink.com 1.10,2013-05-09 19:51:00,
2013-05-09 16:06:00,66.1,60.0,29.86,South,179,0.0,-999.0,80,-99.99,,,0.30,weatherlink.com 1.10,2013-05-09 20:06:00,
2013-05-09 16:21:00,66.3,61.0,29.85,SE,144,0.0,-999.0,82,-99.99,,,0.30,weatherlink.com 1.10,2013-05-09 20:21:00,
2013-05-09 16:36:00,66.7,60.0,29.85,East,88,0.0,-999.0,80,-99.99,,,0.30,weatherlink.com 1.10,2013-05-09 20:36:00,
2013-05-09 16:51:00,66.4,60.0,29.85,East,90,0.0,-999.0,80,-99.99,,,0.30,weatherlink.com 1.10,2013-05-09 20:51:00,
2013-05-09 17:06:00,64.7,61.0,29.85,East,91,0.0,-999.0,88,-99.99,,,0.30,weatherlink.com 1.10,2013-05-09 21:06:00,
2013-05-09 17:21:00,62.6,61.0,29.86,East,91,0.0,-999.0,94,-99.99,,,0.31,weatherlink.com 1.10,2013-05-09 21:21:00,
2013-05-09 17:36:00,61.9,61.0,29.86,East,97,0.0,-999.0,95,-99.99,,,0.32,weatherlink.com 1.10,2013-05-09 21:36:00,
2013-05-09 17:51:00,61.4,60.0,29.86,East,95,0.0,-999.0,96,-99.99,,,0.34,weatherlink.com 1.10,2013-05-09 21:51:00,
2013-05-09 18:06:00,60.3,59.0,29.87,WNW,303,0.0,-999.0,96,-99.99,,,0.55,weatherlink.com 1.10,2013-05-09 22:06:00,
2013-05-09 18:21:00,59.4,58.0,29.87,NW,310,0.0,-999.0,96,-99.99,,,0.70,weatherlink.com 1.10,2013-05-09 22:21:00,
2013-05-09 18:36:00,59.5,59.0,29.85,NNE,28,0.0,-999.0,97,-99.99,,,0.71,weatherlink.com 1.10,2013-05-09 22:36:00,
2013-05-09 18:51:00,59.7,59.0,29.85,ENE,61,0.0,-999.0,96,-99.99,,,0.71,weatherlink.com 1.10,2013-05-09 22:51:00,
2013-05-09 19:06:00,59.3,59.0,29.84,ENE,74,0.0,-999.0,97,-99.99,,,0.72,weatherlink.com 1.10,2013-05-09 23:06:00,
2013-05-09 19:21:00,58.9,58.0,29.85,East,80,0.0,-999.0,97,-99.99,,,0.72,weatherlink.com 1.10,2013-05-09 23:21:00,
2013-05-09 19:36:00,58.5,58.0,29.85,East,82,0.0,-999.0,97,-99.99,,,0.00,weatherlink.com 1.10,2013-05-09 23:36:00,
2013-05-09 19:51:00,58.2,57.0,29.85,East,82,0.0,-999.0,97,-99.99,,,0.01,weatherlink.com 1.10,2013-05-09 23:51:00,
2013-05-09 20:06:00,58.0,57.0,29.85,East,82,0.0,-999.0,97,-99.99,,,0.02,weatherlink.com 1.10,2013-05-10 00:06:00,
2013-05-09 20:21:00,57.6,57.0,29.85,East,84,0.0,-999.0,98,-99.99,,,0.02,weatherlink.com 1.10,2013-05-10 00:21:00,
2013-05-09 20:36:00,57.4,57.0,29.85,East,84,0.0,-999.0,98,-99.99,,,0.02,weatherlink.com 1.10,2013-05-10 00:36:00,
2013-05-09 20:51:00,56.9,56.0,29.86,East,84,0.0,-999.0,98,-99.99,,,0.02,weatherlink.com 1.10,2013-05-10 00:51:00,
2013-05-09 21:06:00,56.6,56.0,29.87,East,84,0.0,-999.0,98,-99.99,,,0.02,weatherlink.com 1.10,2013-05-10 01:06:00,
2013-05-09 21:21:00,56.2,56.0,29.88,East,84,0.0,-999.0,98,-99.99,,,0.02,weatherlink.com 1.10,2013-05-10 01:21:00,
2013-05-09 21:36:00,55.9,55.0,29.88,East,84,0.0,-999.0,98,-99.99,,,0.02,weatherlink.com 1.10,2013-05-10 01:36:00,
2013-05-09 21:51:00,56.0,56.0,29.88,East,84,0.0,-999.0,98,-99.99,,,0.02,weatherlink.com 1.10,2013-05-10 01:51:00,
2013-05-09 22:06:00,56.2,56.0,29.88,East,84,0.0,-999.0,98,-99.99,,,0.02,weatherlink.com 1.10,2013-05-10 02:06:00,
2013-05-09 22:21:00,56.4,56.0,29.88,East,84,0.0,-999.0,98,-99.99,,,0.02,weatherlink.com 1.10,2013-05-10 02:21:00,
2013-05-09 22:36:00,56.5,56.0,29.87,East,84,0.0,-999.0,98,-99.99,,,0.02,weatherlink.com 1.10,2013-05-10 02:36:00,
2013-05-09 22:51:00,56.6,56.0,29.87,East,84,0.0,-999.0,98,-99.99,,,0.02,weatherlink.com 1.10,2013-05-10 02:51:00,
2013-05-09 23:06:00,56.8,57.0,29.86,East,84,0.0,-999.0,99,-99.99,,,0.02,weatherlink.com 1.10,2013-05-10 03:06:00,
2013-05-09 23:21:00,56.3,56.0,29.86,East,84,0.0,-999.0,98,-99.99,,,0.02,weatherlink.com 1.10,2013-05-10 03:21:00,
2013-05-09 23:36:00,56.6,56.0,29.86,East,84,0.0,-999.0,98,-99.99,,,0.02,weatherlink.com 1.10,2013-05-10 03:36:00,
2013-05-09 23:51:00,56.6,56.0,29.86,East,83,0.0,-999.0,98,-99.99,,,0.02,weatherlink.com 1.10,2013-05-10 03:51:00,